Clarksburg, WV

7:40 PM EDT on October 14, 2019 (GMT -0400)
Benedum

Weather History for KCKB - August, 2019

Change the Weather History Date:

Friday, August 23, 2019

  Actual Average Record
Temperature  
Mean Temperature 67 °F -  
Max Temperature 73 °F 82 °F 97 °F (1983)
Min Temperature 60 °F 58 °F 45 °F (1923)
Cooling Degree Days 2    
Growing Degree Days 17 (Base 50)    
Moisture  
Dew Point 61 °F    
Average Humidity 81    
Maximum Humidity 90    
Minimum Humidity 51    
Precipitation  
Precipitation 0.83 in - - ()
Sea Level Pressure  
Sea Level Pressure 30.04 in    
Wind  
Wind Speed 6 mph ()    
Max Wind Speed 15 mph    
Max Gust Speed 22 mph    
Visibility 7.8 miles    
Events Rain    
Averages and records for this station are not official NWS values.
T = Trace of Precipitation, MM = Missing Value Source: Averaged Metar Reports

Daily Weather History Graph

Daily Weather History Graph

Search for Another Location

Airport or City:

Astronomy

Aug. 23, 2019 Rise Set
Actual Time 6:40 AM EDT 8:05 PM EDT
Civil Twilight 6:12 AM EDT 8:33 PM EDT
Nautical Twilight 5:39 AM EDT 9:07 PM EDT
Astronomical Twilight 5:03 AM EDT 9:42 PM EDT
Moon No Moon Rise 2:13 PM EDT (8/23)
Length of Visible Light 14h 20m
Length of Day
13h 24m
Waning Gibbous, 50% of the Moon is Illuminated
Aug 23
Waning Gibbous
Aug 30
New
Sep 5
First Quarter
Sep 14
Full
Sep 21
Last Quarter

Hourly Weather History & Observations

Time (EDT) Temp. Dew Point Humidity Pressure Visibility Wind Dir Wind Speed Gust Speed Precip Events Conditions
12:44 AM 73.9 °F 66.9 °F 79% 30.02 in 10.0 mi Calm Calm - 0.00 in   Overcast
12:53 AM 73.0 °F 66.9 °F 81% 29.97 in 10.0 mi NNE 3.5 mph - 0.00 in   Overcast
1:39 AM 72.0 °F 66.9 °F 84% 30.01 in 10.0 mi NNE 5.8 mph - 0.00 in   Mostly Cloudy
1:53 AM 72.0 °F 66.9 °F 84% 29.96 in 10.0 mi NE 3.5 mph - 0.00 in   Scattered Clouds
2:10 AM 72.0 °F 66.9 °F 84% 30.01 in 10.0 mi NNE 3.5 mph - 0.01 in Rain Light Rain
2:39 AM 72.0 °F 68.0 °F 87% 30.01 in 2.0 mi NW 3.5 mph - 0.10 in Rain Rain
2:46 AM 71.1 °F 66.9 °F 87% 30.01 in 1.0 mi North 4.6 mph - 0.17 in Rain Heavy Rain
2:51 AM 71.6 °F 66.2 °F 83% 30.01 in 3.0 mi North 6.9 mph - 0.17 in Rain Light Rain
2:53 AM 71.1 °F 66.9 °F 87% 29.96 in 5.0 mi North 8.1 mph - 0.17 in Rain Light Rain
3:30 AM 71.1 °F 66.9 °F 87% 30.01 in 10.0 mi North 5.8 mph - 0.00 in Rain Light Rain
3:36 AM 71.1 °F 66.9 °F 87% 30.01 in 2.5 mi North 10.4 mph - 0.09 in Rain Heavy Rain
3:44 AM 70.0 °F 66.0 °F 87% 30.01 in 1.2 mi NNE 8.1 mph - 0.29 in Rain Heavy Rain
3:53 AM 70.0 °F 66.0 °F 87% 29.96 in 1.8 mi NNE 9.2 mph - 0.38 in Rain Rain
3:56 AM 70.0 °F 66.0 °F 87% 30.01 in 3.0 mi North 12.7 mph - 0.00 in Rain Light Rain
4:29 AM 64.9 °F 61.0 °F 87% 30.02 in 10.0 mi NNE 12.7 mph - 0.01 in Rain Light Rain
4:36 AM 64.9 °F 61.0 °F 87% 30.02 in 10.0 mi NNE 10.4 mph - 0.02 in Rain Light Rain
4:53 AM 64.9 °F 60.1 °F 84% 29.98 in 6.0 mi NNE 13.8 mph - 0.04 in Rain Light Rain
5:11 AM 64.9 °F 60.1 °F 84% 30.03 in 7.0 mi NNE 12.7 mph - 0.01 in Rain Light Rain
5:23 AM 64.0 °F 60.1 °F 87% 30.03 in 5.0 mi NNE 12.7 mph 19.6 mph 0.04 in Rain Rain
5:51 AM 62.6 °F 59.0 °F 88% 30.05 in 10.0 mi North 12.7 mph 20.7 mph 0.05 in Rain Light Rain
5:53 AM 63.0 °F 59.0 °F 87% 30.01 in 10.0 mi North 15.0 mph 20.7 mph 0.05 in Rain Light Rain
6:09 AM 63.0 °F 57.9 °F 84% 30.06 in 10.0 mi North 15.0 mph - 0.00 in   Overcast
6:18 AM 63.0 °F 57.9 °F 84% 30.06 in 10.0 mi NNE 13.8 mph - 0.00 in   Overcast
6:53 AM 62.1 °F 59.0 °F 90% 30.03 in 9.0 mi NE 8.1 mph - 0.00 in Rain Light Rain
7:16 AM 62.1 °F 57.0 °F 84% 30.07 in 4.0 mi NE 15.0 mph 21.9 mph 0.01 in Rain Light Rain
7:53 AM 62.1 °F 55.9 °F 80% 30.04 in 10.0 mi NE 8.1 mph - 0.01 in Rain Light Rain
8:53 AM 63.0 °F 57.9 °F 84% 30.05 in 10.0 mi North 4.6 mph - 0.02 in Rain Light Rain
9:53 AM 62.1 °F 57.9 °F 86% 30.07 in 2.5 mi NE 4.6 mph - 0.08 in Rain Heavy Rain
10:06 AM 63.0 °F 57.9 °F 84% 30.11 in 4.0 mi NE 3.5 mph - 0.02 in Rain Light Rain
10:53 AM 62.1 °F 57.0 °F 84% 30.08 in 5.0 mi East 4.6 mph - 0.07 in Rain Rain
11:53 AM 63.0 °F 57.9 °F 84% 30.08 in 10.0 mi ENE 3.5 mph - 0.01 in   Overcast
12:39 PM 64.0 °F 59.0 °F 84% 30.10 in 10.0 mi East 3.5 mph - 0.00 in   Overcast
12:53 PM 64.9 °F 59.0 °F 81% 30.06 in 10.0 mi Calm Calm - 0.00 in   Overcast
1:00 PM 66.0 °F 59.0 °F 78% 30.09 in 10.0 mi NNE 5.8 mph - N/A   Mostly Cloudy
1:53 PM 68.0 °F 57.9 °F 70% 30.07 in 10.0 mi North 8.1 mph - N/A   Mostly Cloudy
2:53 PM 69.1 °F 57.0 °F 65% 30.06 in 10.0 mi Variable 3.5 mph - N/A   Scattered Clouds
3:53 PM 72.0 °F 57.0 °F 59% 30.06 in 10.0 mi North 5.8 mph - N/A   Scattered Clouds
4:53 PM 73.9 °F 55.0 °F 52% 30.06 in 10.0 mi Variable 3.5 mph - N/A   Scattered Clouds
5:53 PM 73.0 °F 54.0 °F 51% 30.06 in 10.0 mi NNW 6.9 mph - N/A   Partly Cloudy
6:53 PM 70.0 °F 54.0 °F 57% 30.06 in 10.0 mi ENE 5.8 mph - N/A   Scattered Clouds
7:53 PM 66.9 °F 55.9 °F 68% 30.07 in 10.0 mi Calm Calm - N/A   Clear
8:53 PM 64.9 °F 57.0 °F 75% 30.09 in 10.0 mi Calm Calm - N/A   Scattered Clouds
9:53 PM 62.1 °F 57.9 °F 86% 30.12 in 10.0 mi Calm Calm - N/A   Partly Cloudy
10:53 PM 61.0 °F 57.0 °F 87% 30.13 in 10.0 mi Calm Calm - N/A   Clear
11:53 PM 60.1 °F 55.9 °F 86% 30.14 in 10.0 mi Calm Calm - N/A   Clear